TimeCDT,TemperatureF,Dew PointF,Humidity,Sea Level PressureIn,VisibilityMPH,Wind Direction,Wind SpeedMPH,Gust SpeedMPH,PrecipitationIn,Events,Conditions,WindDirDegrees,DateUTC
12:16 AM,75.2,73.4,94,29.96,10.0,Calm,Calm,-,N/A,,Scattered Clouds,0,2013-08-14 05:16:00
12:54 AM,75.0,73.0,94,29.94,7.0,Calm,Calm,-,N/A,,Scattered Clouds,0,2013-08-14 05:54:00
1:40 AM,75.2,73.4,94,29.94,7.0,Calm,Calm,-,N/A,,Mostly Cloudy,0,2013-08-14 06:40:00
1:54 AM,75.0,73.9,96,29.93,8.0,Calm,Calm,-,N/A,,Overcast,0,2013-08-14 06:54:00
2:54 AM,75.0,73.9,96,29.95,7.0,Calm,Calm,-,N/A,,Overcast,0,2013-08-14 07:54:00
3:01 AM,75.2,73.4,94,29.96,7.0,Calm,Calm,-,N/A,,Overcast,0,2013-08-14 08:01:00
3:24 AM,75.2,73.4,94,29.96,6.0,SW,3.5,-,N/A,,Overcast,220,2013-08-14 08:24:00
3:33 AM,75.2,73.4,94,29.96,8.0,West,3.5,-,N/A,,Overcast,260,2013-08-14 08:33:00
3:54 AM,75.0,73.0,94,29.94,8.0,WSW,3.5,-,0.00,Rain,Light Rain,240,2013-08-14 08:54:00
4:25 AM,75.2,73.4,94,29.96,9.0,West,4.6,-,0.00,,Overcast,260,2013-08-14 09:25:00
4:54 AM,75.0,73.0,94,29.94,10.0,WSW,4.6,-,0.00,,Overcast,250,2013-08-14 09:54:00
5:04 AM,75.2,71.6,89,29.95,10.0,West,4.6,-,0.00,Rain,Light Rain,260,2013-08-14 10:04:00
5:13 AM,73.4,71.6,94,29.96,10.0,West,6.9,-,0.00,,Overcast,260,2013-08-14 10:13:00
5:22 AM,73.4,71.6,94,29.96,10.0,West,6.9,-,0.00,,Overcast,260,2013-08-14 10:22:00
5:54 AM,73.9,72.0,93,29.94,4.0,Calm,Calm,-,0.02,Rain,Light Rain,0,2013-08-14 10:54:00
6:33 AM,73.4,71.6,94,29.96,10.0,Calm,Calm,-,0.02,,Overcast,0,2013-08-14 11:33:00
6:54 AM,73.0,71.1,93,29.95,10.0,Calm,Calm,-,0.02,,Overcast,0,2013-08-14 11:54:00
7:12 AM,73.4,71.6,94,29.96,10.0,Calm,Calm,-,N/A,,Overcast,0,2013-08-14 12:12:00
7:54 AM,73.9,72.0,93,29.96,9.0,Calm,Calm,-,0.00,Rain,Light Rain,0,2013-08-14 12:54:00
8:54 AM,75.0,72.0,90,29.96,10.0,Calm,Calm,-,0.00,,Overcast,0,2013-08-14 13:54:00
9:54 AM,77.0,73.0,88,29.97,10.0,Calm,Calm,-,N/A,,Overcast,0,2013-08-14 14:54:00
10:19 AM,78.8,73.4,83,29.99,10.0,NNW,5.8,-,N/A,,Overcast,340,2013-08-14 15:19:00
10:45 AM,78.8,73.4,83,29.99,10.0,North,9.2,-,N/A,,Overcast,360,2013-08-14 15:45:00
10:54 AM,79.0,73.0,82,29.98,9.0,North,5.8,-,0.00,Rain,Light Rain,360,2013-08-14 15:54:00
11:45 AM,80.6,73.4,79,29.99,10.0,North,4.6,-,0.00,,Mostly Cloudy,10,2013-08-14 16:45:00
11:54 AM,82.9,73.9,74,29.97,10.0,NNE,8.1,-,0.00,,Mostly Cloudy,20,2013-08-14 16:54:00
12:15 PM,82.4,73.4,74,29.99,10.0,North,9.2,-,N/A,,Mostly Cloudy,360,2013-08-14 17:15:00
12:54 PM,84.0,72.0,67,29.96,10.0,NNE,9.2,-,N/A,,Mostly Cloudy,20,2013-08-14 17:54:00
1:29 PM,84.2,73.4,70,29.97,10.0,North,11.5,17.3,N/A,,Mostly Cloudy,350,2013-08-14 18:29:00
1:54 PM,84.0,71.1,65,29.95,10.0,NNE,10.4,-,N/A,,Overcast,20,2013-08-14 18:54:00
2:54 PM,86.0,71.1,61,29.94,10.0,North,10.4,-,N/A,,Mostly Cloudy,360,2013-08-14 19:54:00
3:54 PM,86.0,71.1,61,29.93,10.0,NNE,13.8,19.6,N/A,,Mostly Cloudy,30,2013-08-14 20:54:00
4:54 PM,84.0,69.1,61,29.93,10.0,NNE,10.4,19.6,N/A,,Mostly Cloudy,30,2013-08-14 21:54:00
5:54 PM,84.9,66.9,55,29.93,10.0,North,9.2,-,N/A,,Scattered Clouds,360,2013-08-14 22:54:00
6:54 PM,82.9,68.0,60,29.93,10.0,North,10.4,-,N/A,,Scattered Clouds,350,2013-08-14 23:54:00
7:54 PM,81.0,66.9,62,29.95,10.0,NNE,5.8,-,N/A,,Scattered Clouds,30,2013-08-15 00:54:00
8:54 PM,78.1,69.1,74,29.96,10.0,NNE,3.5,-,0.01,,Mostly Cloudy,30,2013-08-15 01:54:00
9:54 PM,77.0,69.1,76,29.98,10.0,Calm,Calm,-,N/A,,Scattered Clouds,0,2013-08-15 02:54:00
10:54 PM,78.1,66.9,68,30.00,10.0,NNE,4.6,-,N/A,,Overcast,30,2013-08-15 03:54:00
11:54 PM,75.0,66.9,76,30.00,10.0,North,6.9,-,N/A,,Clear,10,2013-08-15 04:54:00